EDT,Max TemperatureF,Mean TemperatureF,Min TemperatureF,Max Dew PointF,MeanDew PointF,Min DewpointF,Max Humidity, Mean Humidity, Min Humidity, Max Sea Level PressureIn, Mean Sea Level PressureIn, Min Sea Level PressureIn, Max VisibilityMiles, Mean VisibilityMiles, Min VisibilityMiles, Max Wind SpeedMPH, Mean Wind SpeedMPH, Max Gust SpeedMPH,PrecipitationIn, CloudCover, Events, WindDirDegrees
2011-10-1,73,68,61,66,65,60,100,92,83,29.76,29.64,29.57,10,8,0,12,5,,0.33,6,Fog-Rain,159
2011-10-2,68,64,59,63,59,52,100,87,77,29.92,29.81,29.75,10,9,2,14,4,22,0.00,6,,359
2011-10-3,66,58,51,57,51,46,97,78,50,30.08,30.02,29.92,10,10,7,13,2,,0.17,5,Rain,174
2011-10-4,66,60,54,57,55,49,96,86,58,29.99,29.88,29.81,10,7,2,21,7,34,0.39,6,Rain,334
2011-10-5,64,59,53,54,48,29,89,72,40,30.20,29.95,29.82,10,10,6,24,15,33,0.00,7,Rain,344
2011-10-6,60,50,39,38,32,25,86,51,33,30.32,30.24,30.20,10,10,10,22,9,34,0.00,0,,331
2011-10-7,57,57,37,73,39,34,89,70,42,30.46,30.40,30.03,10,10,10,13,3,16,0.00,0,,16
2011-10-8,73,64,53,59,52,47,94,71,46,30.42,30.38,30.32,10,10,10,10,6,,0.00,0,,240
2011-10-9,84,67,50,61,52,47,93,62,27,30.32,30.27,30.20,10,10,10,12,3,,0.00,0,,323
2011-10-10,80,71,62,60,56,53,90,63,42,30.19,30.13,30.08,10,10,10,12,7,21,0.00,0,,334
2011-10-11,66,58,51,51,48,46,89,69,50,30.24,30.20,30.15,10,10,10,12,6,,0.00,0,,34
2011-10-12,63,56,50,57,52,48,100,83,59,30.22,30.14,30.03,10,8,2,10,5,16,0.30,5,Rain,70
2011-10-13,68,64,59,66,63,57,100,97,93,30.01,29.82,29.75,9,3,1,12,7,20,0.92,8,Rain,124
2011-10-14,69,63,60,66,63,60,100,98,90,29.79,29.61,29.38,10,3,0,20,5,31,0.20,8,Fog-Rain,146
2011-10-15,66,62,59,59,48,43,88,60,45,29.72,29.60,29.42,10,10,10,31,22,41,0.00,2,,232
2011-10-16,64,60,57,52,41,34,67,48,35,29.83,29.77,29.73,10,10,10,26,16,33,0.00,2,,245
2011-10-17,66,60,57,58,48,35,87,65,33,29.78,29.69,29.62,10,10,9,22,15,34,0.06,3,Rain,238
2011-10-18,66,60,54,54,47,38,89,65,38,29.96,29.86,29.77,10,10,7,13,8,18,0.00,2,,226
2011-10-19,69,60,51,68,61,50,100,94,77,29.95,29.75,29.57,10,5,1,17,8,30,1.24,7,Rain,99
2011-10-20,71,66,60,70,61,48,100,83,60,29.71,29.56,29.52,10,7,2,30,14,43,0.33,7,Rain,201
2011-10-21,62,56,50,47,45,43,80,63,52,29.97,29.85,29.73,10,10,10,24,16,32,0.00,2,,233
2011-10-22,62,56,48,46,44,41,77,66,48,30.06,30.01,29.97,10,10,10,16,5,,0.00,4,,262
2011-10-23,59,50,41,48,43,38,93,78,58,30.15,30.10,30.06,10,10,10,10,3,,0.00,2,,334
2011-10-24,59,47,35,46,41,33,97,80,49,30.15,30.08,29.94,10,10,10,8,1,,0.00,1,,191
2011-10-25,61,54,48,51,41,33,96,63,42,29.96,29.90,29.84,10,10,6,17,6,25,0.02,2,Rain,302
2011-10-26,52,49,46,46,39,33,90,67,58,29.99,29.88,29.76,10,10,10,8,4,,0.00,7,Rain,336
2011-10-27,51,46,42,50,45,37,100,92,81,29.77,29.67,29.60,10,5,2,21,8,31,0.49,8,Rain,30
2011-10-28,48,42,36,38,30,24,87,66,39,30.25,30.08,29.83,10,10,9,21,12,29,0.03,3,Rain,325
2011-10-29,48,42,35,41,38,29,96,86,61,30.25,29.89,29.54,10,4,2,30,12,47,1.01,7,Rain,41
2011-10-30,45,41,36,40,35,27,93,80,53,30.29,29.71,29.42,10,6,1,39,28,60,0.31,7,Rain,340
2011-10-31,51,40,28,38,33,26,93,74,48,30.42,30.38,30.31,10,10,2,9,3,,0.00,0,,306